AAL3169 KORD-KDSM

Flight info

Callsign AAL3169
Flight time 0h 53m
Altitude 36000
Route OLINN OREOS OBENE
Aircraft A319/M-SDE3FGHIRWY/LB1

Departure

Time 2026-04-24 00:55
Airport Chicago O'Hare International Airport (KORD)

Arrival

Time 2026-04-24 01:48
Airport Des Moines International Airport (KDSM)
Time Latitude Longitude Altitude Speed Heading
2026-04-24 00:30 41.97443 -87.89825 669 ft 0 kts 32°
2026-04-24 00:42 41.97427 -87.89839 667 ft 4 kts 39°
2026-04-24 00:42 41.97409 -87.89865 669 ft 4 kts 59°
2026-04-24 00:43 41.97400 -87.89897 669 ft 4 kts 98°
2026-04-24 00:43 41.97405 -87.89917 669 ft 0 kts 129°
2026-04-24 00:43 41.97399 -87.89897 669 ft 4 kts 108°
2026-04-24 00:43 41.97389 -87.89864 665 ft 4 kts 122°
2026-04-24 00:44 41.97374 -87.89848 669 ft 0 kts 146°
2026-04-24 00:50 41.97371 -87.89845 669 ft 2 kts 146°
2026-04-24 00:50 41.97352 -87.89828 668 ft 5 kts 146°
2026-04-24 00:50 41.97317 -87.89797 669 ft 8 kts 146°
2026-04-24 00:50 41.97269 -87.89744 669 ft 10 kts 124°
2026-04-24 00:51 41.97217 -87.89672 669 ft 12 kts 97°
2026-04-24 00:51 41.97239 -87.89563 669 ft 13 kts 110°
2026-04-24 00:51 41.97194 -87.89455 669 ft 15 kts 89°
2026-04-24 00:51 41.97194 -87.89305 669 ft 17 kts 91°
2026-04-24 00:52 41.97195 -87.89136 669 ft 19 kts 90°
2026-04-24 00:52 41.97195 -87.88947 669 ft 21 kts 90°
2026-04-24 00:52 41.97195 -87.88743 669 ft 23 kts 89°
2026-04-24 00:52 41.97196 -87.88526 669 ft 20 kts 91°
2026-04-24 00:53 41.97196 -87.88331 669 ft 22 kts 90°
2026-04-24 00:53 41.97196 -87.88117 669 ft 24 kts 90°
2026-04-24 00:53 41.97131 -87.88034 669 ft 15 kts 181°
2026-04-24 00:53 41.97012 -87.88035 671 ft 18 kts 180°
2026-04-24 00:54 41.96887 -87.88103 671 ft 25 kts 221°
2026-04-24 00:54 41.96639 -87.88395 666 ft 74 kts 221°
2026-04-24 00:54 41.96118 -87.89010 671 ft 127 kts 221°
2026-04-24 00:54 41.95394 -87.89864 1041 ft 142 kts 219°
2026-04-24 00:55 41.94564 -87.90584 1648 ft 143 kts 193°
2026-04-24 00:55 41.93577 -87.90703 2285 ft 142 kts 181°
2026-04-24 00:55 41.92549 -87.90602 2688 ft 162 kts 177°
2026-04-24 00:55 41.91327 -87.90441 3046 ft 188 kts 181°
2026-04-24 00:56 41.90018 -87.90997 3508 ft 215 kts 214°
2026-04-24 00:56 41.89168 -87.92802 4063 ft 250 kts 250°
2026-04-24 00:56 41.88968 -87.95203 4750 ft 264 kts 263°
2026-04-24 00:56 41.89027 -87.97682 4941 ft 266 kts 268°
2026-04-24 00:57 41.89183 -88.00165 5009 ft 268 kts 269°
2026-04-24 00:57 41.89347 -88.02623 5016 ft 267 kts 269°
2026-04-24 00:57 41.89598 -88.07632 6284 ft 268 kts 267°
2026-04-24 00:58 41.89689 -88.10137 7260 ft 270 kts 267°
2026-04-24 00:58 41.89767 -88.12672 8206 ft 273 kts 268°
2026-04-24 00:58 41.89838 -88.15237 9145 ft 277 kts 268°
2026-04-24 00:58 41.89903 -88.17809 10028 ft 280 kts 269°
2026-04-24 00:59 41.89967 -88.20449 10857 ft 284 kts 269°
2026-04-24 00:59 41.90029 -88.23121 11688 ft 288 kts 269°
2026-04-24 00:59 41.90094 -88.25830 12511 ft 292 kts 270°
2026-04-24 00:59 41.90161 -88.28586 13363 ft 295 kts 270°
2026-04-24 01:00 41.90228 -88.31318 14132 ft 298 kts 270°
2026-04-24 01:00 41.90296 -88.34125 14857 ft 302 kts 270°
2026-04-24 01:00 41.90366 -88.36959 15572 ft 305 kts 270°
2026-04-24 01:00 41.90435 -88.39819 16351 ft 308 kts 271°
2026-04-24 01:01 41.90505 -88.42712 17081 ft 311 kts 270°
2026-04-24 01:01 41.90572 -88.45634 17816 ft 314 kts 271°
2026-04-24 01:01 41.90638 -88.48542 18489 ft 317 kts 270°
2026-04-24 01:01 41.90704 -88.51521 19096 ft 320 kts 270°
2026-04-24 01:02 41.90771 -88.54521 19741 ft 323 kts 270°
2026-04-24 01:02 41.90839 -88.57552 20391 ft 325 kts 270°
2026-04-24 01:02 41.90909 -88.60614 20976 ft 329 kts 270°
2026-04-24 01:02 41.90976 -88.63699 21591 ft 332 kts 270°
2026-04-24 01:03 41.91042 -88.66822 22147 ft 336 kts 270°
2026-04-24 01:03 41.91107 -88.69928 22652 ft 339 kts 270°
2026-04-24 01:03 41.91202 -88.73092 22773 ft 339 kts 271°
2026-04-24 01:03 41.91290 -88.76248 22794 ft 337 kts 270°
2026-04-24 01:04 41.91321 -88.79399 22795 ft 337 kts 269°
2026-04-24 01:04 41.91292 -88.82563 22795 ft 338 kts 268°
2026-04-24 01:04 41.91219 -88.85727 22810 ft 345 kts 266°
2026-04-24 01:04 41.91114 -88.88995 22796 ft 363 kts 266°
2026-04-24 01:05 41.90988 -88.92468 22791 ft 381 kts 266°
2026-04-24 01:05 41.90854 -88.96112 22790 ft 398 kts 266°
2026-04-24 01:05 41.90721 -88.99896 22788 ft 413 kts 266°
2026-04-24 01:05 41.90589 -89.03823 22786 ft 426 kts 266°
2026-04-24 01:06 41.90458 -89.07784 22765 ft 435 kts 266°
2026-04-24 01:06 41.90323 -89.11877 22816 ft 440 kts 266°
2026-04-24 01:06 41.90186 -89.15986 23233 ft 440 kts 266°
2026-04-24 01:06 41.90042 -89.20083 23674 ft 439 kts 265°
2026-04-24 01:07 41.89809 -89.24161 24134 ft 437 kts 263°
2026-04-24 01:07 41.89472 -89.28220 24598 ft 435 kts 262°
2026-04-24 01:07 41.89070 -89.32189 25070 ft 434 kts 261°
2026-04-24 01:07 41.88633 -89.36196 25567 ft 432 kts 261°
2026-04-24 01:08 41.88199 -89.40174 26073 ft 430 kts 261°
2026-04-24 01:08 41.87778 -89.44142 26576 ft 429 kts 261°
2026-04-24 01:08 41.87373 -89.48105 27100 ft 427 kts 261°
2026-04-24 01:08 41.86981 -89.52048 27624 ft 425 kts 261°
2026-04-24 01:09 41.86598 -89.55980 28176 ft 424 kts 262°
2026-04-24 01:09 41.86221 -89.59846 28725 ft 422 kts 261°
2026-04-24 01:09 41.85839 -89.63737 29289 ft 420 kts 261°
2026-04-24 01:09 41.85455 -89.67625 29854 ft 419 kts 261°
2026-04-24 01:10 41.85071 -89.71495 30341 ft 417 kts 261°
2026-04-24 01:10 41.84680 -89.75363 30737 ft 418 kts 261°
2026-04-24 01:10 41.84315 -89.79227 31232 ft 416 kts 263°
2026-04-24 01:10 41.84029 -89.83073 31804 ft 413 kts 264°
2026-04-24 01:11 41.83793 -89.86910 32349 ft 410 kts 264°
2026-04-24 01:11 41.83582 -89.90670 32871 ft 408 kts 264°
2026-04-24 01:11 41.83368 -89.94464 33398 ft 407 kts 264°
2026-04-24 01:11 41.83146 -89.98247 33915 ft 405 kts 264°
2026-04-24 01:12 41.82913 -90.02003 34327 ft 403 kts 264°
2026-04-24 01:12 41.82672 -90.05749 34748 ft 402 kts 264°
2026-04-24 01:12 41.82431 -90.09428 35169 ft 400 kts 264°
2026-04-24 01:12 41.82183 -90.13149 35572 ft 399 kts 264°
2026-04-24 01:13 41.81936 -90.16859 35689 ft 398 kts 264°
2026-04-24 01:13 41.81445 -90.24238 35712 ft 396 kts 264°
2026-04-24 01:14 41.80956 -90.31549 35712 ft 396 kts 264°
2026-04-24 01:14 41.80455 -90.38914 35711 ft 396 kts 264°
2026-04-24 01:15 41.79949 -90.46245 35712 ft 394 kts 264°
2026-04-24 01:15 41.79443 -90.53533 35713 ft 394 kts 264°
2026-04-24 01:16 41.78936 -90.60856 35702 ft 394 kts 264°
2026-04-24 01:16 41.78421 -90.68149 35696 ft 394 kts 264°
2026-04-24 01:17 41.77902 -90.75430 35696 ft 394 kts 264°
2026-04-24 01:17 41.77380 -90.82765 35679 ft 395 kts 264°
2026-04-24 01:18 41.76856 -90.90060 35679 ft 396 kts 265°
2026-04-24 01:18 41.76320 -90.97418 35676 ft 397 kts 264°
2026-04-24 01:19 41.75782 -91.04741 35679 ft 397 kts 264°
2026-04-24 01:19 41.75231 -91.12117 35670 ft 397 kts 264°
2026-04-24 01:20 41.74680 -91.19492 35672 ft 398 kts 264°
2026-04-24 01:20 41.74126 -91.26824 35658 ft 398 kts 264°
2026-04-24 01:21 41.73562 -91.34213 35652 ft 398 kts 264°
2026-04-24 01:21 41.72994 -91.41613 35660 ft 399 kts 264°
2026-04-24 01:21 41.72726 -91.45070 36121 ft 399 kts 264°
2026-04-24 01:22 41.72431 -91.48832 35644 ft 403 kts 263°
2026-04-24 01:22 41.71842 -91.56344 35662 ft 406 kts 262°
2026-04-24 01:23 41.71248 -91.63865 35665 ft 406 kts 262°
2026-04-24 01:23 41.70022 -91.71112 35664 ft 399 kts 244°
2026-04-24 01:23 41.68786 -91.74419 35374 ft 395 kts 240°
2026-04-24 01:24 41.67250 -91.77477 34875 ft 395 kts 234°
2026-04-24 01:24 41.65638 -91.80399 34434 ft 393 kts 234°
2026-04-24 01:24 41.64015 -91.83327 34015 ft 391 kts 234°
2026-04-24 01:24 41.62398 -91.86243 33714 ft 388 kts 234°
2026-04-24 01:25 41.60792 -91.89144 33656 ft 389 kts 234°
2026-04-24 01:25 41.58140 -91.94002 33669 ft 387 kts 234°
2026-04-24 01:26 41.55035 -91.99866 33668 ft 385 kts 234°
2026-04-24 01:26 41.51932 -92.05695 33667 ft 384 kts 234°
2026-04-24 01:26 41.50402 -92.08557 33540 ft 382 kts 234°
2026-04-24 01:27 41.49070 -92.11599 33113 ft 380 kts 247°
2026-04-24 01:27 41.48458 -92.15029 32650 ft 382 kts 263°
2026-04-24 01:27 41.48513 -92.18585 32173 ft 383 kts 269°
2026-04-24 01:27 41.48651 -92.22134 31689 ft 380 kts 269°
2026-04-24 01:28 41.48793 -92.25585 31000 ft 376 kts 269°
2026-04-24 01:28 41.48937 -92.29074 30038 ft 378 kts 269°
2026-04-24 01:28 41.49074 -92.32634 28746 ft 387 kts 268°
2026-04-24 01:28 41.49208 -92.36224 27760 ft 387 kts 268°
2026-04-24 01:29 41.49343 -92.39751 26916 ft 383 kts 268°
2026-04-24 01:29 41.49482 -92.43298 26008 ft 379 kts 268°
2026-04-24 01:29 41.49615 -92.46865 24639 ft 389 kts 268°
2026-04-24 01:29 41.49746 -92.50516 23379 ft 396 kts 268°
2026-04-24 01:30 41.49879 -92.54183 22200 ft 394 kts 268°
2026-04-24 01:30 41.50012 -92.57768 21170 ft 389 kts 268°
2026-04-24 01:30 41.50145 -92.61356 20194 ft 383 kts 268°
2026-04-24 01:30 41.50273 -92.64886 19283 ft 378 kts 268°
2026-04-24 01:31 41.50398 -92.68366 18411 ft 372 kts 267°
2026-04-24 01:31 41.50519 -92.71792 17494 ft 366 kts 267°
2026-04-24 01:31 41.50633 -92.75118 16533 ft 360 kts 267°
2026-04-24 01:31 41.50745 -92.78436 15572 ft 354 kts 267°
2026-04-24 01:32 41.50855 -92.81693 14618 ft 347 kts 267°
2026-04-24 01:32 41.50963 -92.84889 13712 ft 342 kts 267°
2026-04-24 01:32 41.51070 -92.88035 12746 ft 336 kts 267°
2026-04-24 01:32 41.51173 -92.91125 11767 ft 331 kts 267°
2026-04-24 01:33 41.51273 -92.94107 11417 ft 309 kts 267°
2026-04-24 01:33 41.51368 -92.96864 10930 ft 296 kts 267°
2026-04-24 01:33 41.51456 -92.99577 10294 ft 289 kts 266°
2026-04-24 01:33 41.51539 -93.02246 9636 ft 286 kts 267°
2026-04-24 01:34 41.51620 -93.04883 9106 ft 281 kts 267°
2026-04-24 01:34 41.51700 -93.07409 8989 ft 267 kts 268°
2026-04-24 01:34 41.52015 -93.09819 8969 ft 267 kts 285°
2026-04-24 01:34 41.52771 -93.12050 8972 ft 258 kts 289°
2026-04-24 01:35 41.53548 -93.14179 8974 ft 253 kts 290°
2026-04-24 01:35 41.54324 -93.16284 8975 ft 252 kts 290°
2026-04-24 01:35 41.55090 -93.18359 8975 ft 252 kts 290°
2026-04-24 01:35 41.55865 -93.20456 8976 ft 252 kts 290°
2026-04-24 01:36 41.56643 -93.22555 8970 ft 252 kts 290°
2026-04-24 01:36 41.57422 -93.24660 8970 ft 252 kts 290°
2026-04-24 01:36 41.58205 -93.26780 8975 ft 263 kts 290°
2026-04-24 01:36 41.59012 -93.28997 8973 ft 272 kts 290°
2026-04-24 01:37 41.59843 -93.31289 9007 ft 274 kts 290°
2026-04-24 01:37 41.60677 -93.33591 9012 ft 274 kts 290°
2026-04-24 01:37 41.61512 -93.35895 9012 ft 275 kts 290°
2026-04-24 01:37 41.62335 -93.38163 9021 ft 274 kts 290°
2026-04-24 01:38 41.63170 -93.40462 9028 ft 274 kts 290°
2026-04-24 01:38 41.64005 -93.42763 9031 ft 274 kts 290°
2026-04-24 01:38 41.64842 -93.45068 9040 ft 274 kts 290°
2026-04-24 01:38 41.65674 -93.47359 9037 ft 271 kts 290°
2026-04-24 01:39 41.66459 -93.49554 9031 ft 256 kts 286°
2026-04-24 01:39 41.67001 -93.51762 8902 ft 245 kts 281°
2026-04-24 01:39 41.67469 -93.53905 8678 ft 235 kts 280°
2026-04-24 01:39 41.67922 -93.55992 8276 ft 233 kts 280°
2026-04-24 01:40 41.68365 -93.58038 7984 ft 231 kts 280°
2026-04-24 01:40 41.68808 -93.60101 7662 ft 230 kts 280°
2026-04-24 01:40 41.69249 -93.62148 7289 ft 228 kts 280°
2026-04-24 01:40 41.69689 -93.64179 6886 ft 227 kts 280°
2026-04-24 01:41 41.70128 -93.66200 6475 ft 226 kts 280°
2026-04-24 01:41 41.70567 -93.68220 6068 ft 224 kts 280°
2026-04-24 01:41 41.71001 -93.70204 5642 ft 223 kts 280°
2026-04-24 01:41 41.71439 -93.72200 5235 ft 223 kts 280°
2026-04-24 01:42 41.71869 -93.74186 4796 ft 222 kts 280°
2026-04-24 01:42 41.72288 -93.76172 4201 ft 222 kts 280°
2026-04-24 01:42 41.72694 -93.78154 3933 ft 218 kts 276°
2026-04-24 01:42 41.72593 -93.80118 3812 ft 211 kts 246°
2026-04-24 01:43 41.71713 -93.81615 3336 ft 212 kts 213°
2026-04-24 01:43 41.70352 -93.82426 2971 ft 216 kts 202°
2026-04-24 01:43 41.68960 -93.83080 2913 ft 205 kts 200°
2026-04-24 01:43 41.67607 -93.83438 2903 ft 196 kts 177°
2026-04-24 01:44 41.66281 -93.82908 2918 ft 201 kts 162°
2026-04-24 01:44 41.65024 -93.82161 2910 ft 191 kts 161°
2026-04-24 01:44 41.63929 -93.81187 2916 ft 192 kts 140°
2026-04-24 01:44 41.63050 -93.79886 2902 ft 188 kts 139°
2026-04-24 01:45 41.62166 -93.78587 2906 ft 189 kts 139°
2026-04-24 01:45 41.61286 -93.77293 2822 ft 184 kts 139°
2026-04-24 01:45 41.60439 -93.76050 2575 ft 181 kts 140°
2026-04-24 01:45 41.59597 -93.74817 2436 ft 178 kts 140°
2026-04-24 01:46 41.58789 -93.73629 2205 ft 166 kts 140°
2026-04-24 01:46 41.58035 -93.72525 1988 ft 155 kts 139°
2026-04-24 01:46 41.57327 -93.71489 1803 ft 150 kts 140°
2026-04-24 01:46 41.56654 -93.70503 1592 ft 136 kts 139°
2026-04-24 01:47 41.56003 -93.69553 1421 ft 141 kts 133°
2026-04-24 01:47 41.55358 -93.68612 1211 ft 136 kts 127°
2026-04-24 01:47 41.54711 -93.67664 1011 ft 138 kts 127°
2026-04-24 01:47 41.54109 -93.66772 918 ft 111 kts 133°
2026-04-24 01:48 41.53716 -93.66206 910 ft 64 kts 133°
2026-04-24 01:48 41.53446 -93.65817 914 ft 51 kts 132°
2026-04-24 01:48 41.53262 -93.65551 914 ft 31 kts 131°
2026-04-24 01:48 41.53259 -93.65400 913 ft 15 kts 33°
2026-04-24 01:49 41.53288 -93.65298 911 ft 11 kts 91°
2026-04-24 01:49 41.53287 -93.65212 912 ft 9 kts 90°
2026-04-24 01:49 41.53287 -93.65148 915 ft 5 kts 89°
2026-04-24 01:49 41.53288 -93.65129 916 ft 0 kts 88°
2026-04-24 01:50 41.53287 -93.65107 917 ft 6 kts 102°
2026-04-24 01:50 41.53257 -93.65041 918 ft 1 kts 115°